Weather in Belomestnaya Dvoynya

Russia / Tambov Oblast     52°41′45″N   41°03′44″E
temp.,
°C
wind,
m/s
gust,
m/s
humid.,
%
clouds,
%
prec.,
mm/h
press.,
hPa
HPBL,
m
16 september, thu
thu1600:00+7nw22701 0.0 101416
03:00+6wnw36655 0.0 1014103
06:00+6nw5106594 0.0 1016306
09:00+9nnw567099 0.0 1016977
12:00+12nnw564838 0.0 10171472
15:00+14nw56384 0.0 10171693
18:00+11n47560 0.0 1018305
21:00+7nne226945 0.0 101921
17 september, fri
fri1700:00+7wsw117025 0.0 101910
03:00+5w22795 0.0 102021
06:00+5w2283100 0.0 101914
09:00+10w1260100 0.0 1019363
12:00+14wsw1246100 0.0 10181558
15:00+14nnw2343100 0.0 10171525
18:00+12nne4551100 0.0 1017414
21:00+10ne4755100 0.0 1018493
18 september, sat
sat1800:00+9ne5857100 0.0 1019497
03:00+8ne4859100 0.0 1020366
06:00+5ne5966100 0.0 1021281
09:00+9ene5752100 0.0 1022674
12:00+12e5636100 0.0 10221211
15:00+13e5532100 0.0 10211323
18:00+11e3636100 0.0 1022218
21:00+9e3842100 0.0 1022181
19 september, sun
sun1900:00+8e51054100 0.0 1022327
03:00+7e51162100 0.0 1022395
06:00+6e51166100 0.0 1022369
09:00+7ese51163100 0.2 1022579
12:00+7ese61273100 0.9 1022591
15:00+7e71481100 3.3 1021628
18:00+7ese81589100 4.6 1019686
21:00+7ese91793100 12.4 1018703
20 september, mon
mon2000:00+7ese91793100 6.1 1016745
03:00+8ese81592100 6.7 1015805
06:00+7ese81494100 3.5 1014627
09:00+7e71395100 6.9 1014653
12:00+7e71493100 0.8 1014646
15:00+9ese71393100 1.1 1013616
18:00+9ese81492100 0.1 1012565
21:00+9ese8149493 0.6 1012453